Location: Melbourne
(37.8666°S, 145.1333°E)
Time: 09:17:34
(UTC+11:00)

Daily predictions for brighter satellites

Satellite Brightness Start Highest point End
(mag) Time Altitude Azimuth Time Altitude Azimuth Time Altitude Azimuth
Ariane Rocket 4.1 20:00:51 10° S 20:05:49 51° WSW 20:10:43 10° NNW
Cosmos 1743 Rocket 3.9 20:01:37 10° NNE 20:05:57 49° E 20:10:21 10° SSE
Cosmos 2151 3.6 20:02:10 10° NNE 20:06:00 35° E 20:09:54 10° SSE
Cosmos 1727 Rocket 4.2 20:01:04 10° NNE 20:07:10 54° E 20:13:17 10° SSE
Meteor 2-10 4.3 20:02:08 10° SSW 20:07:32 76° W 20:12:41 10° N
SPOT 3 Rocket 3.8 20:02:56 10° SSE 20:07:57 47° E 20:12:56 10° N
Cosmos 1766 Rocket 4.3 20:04:24 10° NNW 20:08:52 63° W 20:13:23 10° S
METEOR-M 4.2 20:04:42 10° SSE 20:10:06 62° E 20:15:25 10° N
Cosmos 2227 Rocket 3.4 20:06:17 10° SW 20:11:42 45° WNW 20:17:03 10° N
Cosmos 2360 4.3 20:07:54 10° N 20:13:31 58° ENE 20:19:10 10° SSE
NOAA 12 4.2 20:20:01 10° SSE 20:25:13 54° E 20:30:22 10° N
Cosmos 1315 Rocket 3.8 20:22:13 10° NNE 20:25:47 28° E 20:29:24 10° SSE
Iridium 43 3.8 20:24:15 10° SSE 20:26:27 40° E 20:28:46 10° NNE
Cosmos 1500 Rocket 3.5 20:23:45 10° N 20:28:03 65° E 20:32:27 10° SSE
SL-16 R/B 3.0 20:24:13 10° NNE 20:29:00 28° ENE 20:33:48 10° SE
YAOGAN 1 3.7 20:25:52 10° S 20:30:08 49° WSW 20:34:20 10° NNW
Cosmos 1607 4.0 20:24:41 10° SSW 20:30:48 83° WNW 20:36:53 10° NNE
CZ-4 R/B 3.7 20:27:10 10° S 20:30:52 31° WSW 20:34:36 10° NW
Cosmos 1626 2.4 20:31:26 10° NNW 20:35:11 72° W 20:39:00 10° S
Helios 1B rocket 3.3 20:33:33 15° NE 20:36:23 32° ESE 20:40:07 10° S
ATLAS CENTAUR R/B 3.0 20:32:37 10° S 20:36:36 25° SE 20:39:09 16° E
Cosmos 2058 2.8 20:34:10 10° N 20:38:18 86° E 20:42:30 10° S
ALOS 2.2 20:34:34 10° SSE 20:39:20 77° ENE 20:44:02 10° N
ATLAS 3B R/B 3.2 20:32:41 10° SSW 20:39:57 54° SE 20:45:54 17° NE
Cosmos 1328 Rocket 4.3 20:38:46 10° SSW 20:43:12 58° W 20:47:36 10° N
Lacrosse 5 4.3 20:44:46 10° S 20:46:12 11° SSE 20:47:38 10° SSE
Cosmos 1802 Rocket 4.5 20:40:34 10° S 20:46:42 43° ESE 20:51:43 15° NE
Cosmos 1818 4.3 20:43:57 10° NW 20:49:15 56° SW 20:54:36 10° SSE
Cosmos 2297 Rocket 4.3 20:45:10 10° SW 20:49:47 26° WNW 20:54:22 10° NNW
FREGAT/IRIS 2.6 20:46:56 10° SSE 20:50:00 61° E 20:53:02 10° N
Meteor 1-27 4.4 20:45:10 10° SSW 20:50:48 76° W 20:56:23 10° N
Cosmos 2227 4.2 20:46:11 10° SSW 20:51:51 64° ESE 20:55:56 19° NE
Iridium 82 4.4 20:51:46 10° S 20:55:24 70° E 20:58:05 17° N
H-2A R/B 2.6 20:52:23 10° SSE 20:56:10 61° E 20:59:54 10° N
BREEZE-M DEB (TANK) 3.0 20:52:09 10° SW 20:56:43 82° NW 20:58:40 27° NE
Cosmos 2056 Rocket 3.4 20:55:31 10° N 21:00:37 69° ENE 21:05:46 10° SSE
FENGYUN 3A 3.8 20:55:28 10° S 21:00:54 77° WSW 21:06:17 10° NNW
Cosmos 1459 Rocket 3.9 20:54:55 10° S 21:01:02 66° E 21:06:23 14° NNE
USA 238 DEB 3.8 20:54:47 10° SSW 21:01:51 67° SE 21:06:14 24° NE
USA 238 3.8 20:54:54 10° SSW 21:01:58 66° SE 21:06:19 24° NE
Sich 1 3.8 21:02:32 30° ENE 21:03:15 32° E 21:07:15 10° SSE
Cosmos 1805 Rocket 3.7 21:03:01 17° NNE 21:06:22 54° E 21:10:48 10° SSE
Cosmos 1869 3.7 21:02:47 10° S 21:06:45 45° E 21:07:43 37° ENE
Meteor 1-29 3.2 21:07:52 44° ENE 21:08:30 51° ESE 21:11:58 10° S
HJ-1C 3.3 21:06:58 10° SSE 21:10:24 71° E 21:11:49 32° N
CZ-2D R/B 3.7 21:07:16 10° SSE 21:10:45 39° E 21:10:45 39° E
Resurs 01 Rocket 2.6 21:08:11 10° SE 21:11:23 28° ESE 21:11:23 28° ESE
Cosmos 2360 Rocket 3.4 21:14:09 24° E 21:14:09 24° E 21:17:27 10° SE
Cosmos 1980 Rocket 3.7 21:08:45 10° NW 21:14:03 39° WSW 21:19:24 10° S
Cosmos 1666 Rocket 3.9 21:14:24 40° ENE 21:14:46 41° E 21:18:56 10° SSE
MOS 1-B Rocket 4.4 21:10:22 10° SSE 21:17:04 45° E 21:20:12 26° NNE
TRAILBLAZER 4.5 21:13:20 10° SSW 21:17:54 89° WNW 21:19:29 40° NNE
Cosmos 2100 Rocket 4.0 21:11:59 10° S 21:18:23 83° W 21:24:18 12° N
USA 215 4.1 21:14:50 22° E 21:18:28 39° SSE 21:24:31 10° SSW
Cosmos 1452 Rocket 4.0 21:18:03 37° ENE 21:18:45 38° E 21:23:40 10° SE
Cosmos 2322 Rocket 2.1 21:13:09 10° NNW 21:18:48 78° ENE 21:24:33 10° SSE
Cosmos 407 Rocket 3.6 21:15:53 10° S 21:21:13 60° ESE 21:23:01 39° NE
Cosmos 2016 Rocket 3.9 21:15:53 10° S 21:22:04 68° E 21:25:28 28° NNE
Cosmos 2263 Rocket 2.7 21:17:02 10° S 21:22:28 44° ESE 21:23:57 36° E
Envisat 3.5 21:19:22 10° SSE 21:23:57 37° E 21:23:57 37° E
Cosmos 1633 Rocket 3.5 21:24:59 43° E 21:24:59 43° E 21:28:59 10° SSE
USA 32 4.3 21:24:00 41° ENE 21:25:00 46° E 21:30:04 10° SSE
Cosmos 1455 3.6 21:21:41 10° SSW 21:25:19 38° W 21:28:31 13° NNW
Cosmos 1241 Rocket 4.4 21:20:03 10° NNW 21:26:19 83° ENE 21:32:45 10° SSE
CSL-04 DEB 4.5 21:22:27 10° SSE 21:26:56 81° ENE 21:29:32 24° N
Resurs 1-3 4.2 21:24:59 10° SSE 21:28:23 38° ESE 21:28:23 38° ESE
BREEZE-M DEB (TANK) 3.7 21:19:35 10° WSW 21:32:30 63° SSE 21:33:40 45° E
Meteor 2-10 Rocket 3.8 21:30:08 10° S 21:35:45 54° ESE 21:36:37 49° ENE
Cosmos 724 4.4 21:32:03 10° SSW 21:38:16 67° ESE 21:39:57 47° ENE
NOSS 3-2 (C) 3.8 21:33:35 10° SSW 21:39:52 47° SE 21:41:13 41° E
Cosmos 1864 Rocket 4.4 21:36:52 10° S 21:43:04 70° E 21:44:49 48° NNE
SJ-6B 4.0 21:39:53 10° S 21:43:49 44° WSW 21:47:19 12° NW
H-2A ROCKET BODY 4.1 21:38:58 10° WNW 21:45:20 55° NNE 22:21:29 10° E
Cosmos 1346 Rocket 3.2 21:50:38 10° SSW 21:54:42 62° W 21:54:42 62° W
ARGOS Delta rocket 3.8 21:58:59 69° S 21:58:59 69° S 22:02:58 10° S
GEOS 3 Rocket 4.1 22:00:12 46° NNW 22:01:10 52° WNW 22:06:14 10° SW
NOSS 3-4 (A) 4.1 21:56:15 10° NW 22:04:10 79° WSW 22:11:57 10° SSE
NOSS 3-4 (C) 4.0 21:56:21 10° NW 22:04:16 80° WSW 22:12:03 10° SSE
Cosmos 614 Rocket 4.2 21:59:30 10° S 22:03:55 55° SE 22:03:55 55° SE
Cosmos 1420 Rocket 4.3 22:06:46 54° SE 22:06:46 54° SE 22:10:51 10° SSE
Cosmos 921 Rocket 3.9 22:12:09 47° SW 22:12:09 47° SW 22:15:54 10° S
SL-16 R/B 3.6 22:07:39 10° NW 22:12:54 37° WSW 22:18:12 10° S
NOSS 3-2 (A) 3.3 22:07:00 10° SW 22:13:26 78° WNW 22:13:53 73° NNW
SeaSat 1 4.5 22:15:32 17° SE 22:15:32 17° SE 22:17:51 10° S
ATLAS CENTAUR R/B 2.8 22:11:25 10° SW 22:15:26 36° WNW 22:15:26 36° WNW
Cosmos 1725 Rocket 4.4 22:13:15 10° SSW 22:19:24 59° W 22:21:07 44° NW
CENTAUR R/B 3.3 22:18:53 10° SSW 22:23:54 34° SE 22:23:54 34° SE
Meteor 2-3 Rocket 4.5 22:27:30 42° SSE 22:27:30 42° SSE 22:31:16 10° SSE
Spot 2 Rocket 4.0 22:23:34 10° S 22:28:35 56° WSW 22:28:37 56° WSW
Cosmos 2233 Rocket 3.9 22:24:01 10° S 22:30:17 79° W 22:30:22 79° WNW
ATLAS 3B R/B 4.2 22:23:58 10° SW 22:30:25 32° WNW 22:33:11 25° NW
Lacrosse 5 3.3 22:26:02 10° SSW 22:29:45 31° SSE 22:29:45 31° SSE
Cosmos 1140 Rocket 4.1 22:27:41 10° SSW 22:32:00 55° WSW 22:32:00 55° WSW
CZ-2C R/B 4.5 22:45:38 21° SSE 22:45:38 21° SSE 22:47:45 10° S
Cosmos 1844 Rocket 3.9 22:41:34 10° S 22:45:14 35° SSE 22:45:14 35° SSE
Resurs 01 Rocket 3.7 22:44:51 10° SSW 22:48:26 24° WSW 22:48:58 23° W
COSMOS 2455 4.4 22:44:54 10° S 22:48:48 25° SSE 22:48:48 25° SSE
COSMOS 2428 4.4 22:54:42 24° SSE 22:54:42 24° SSE 22:56:53 10° SSE
Cosmos 2360 Rocket 3.3 22:55:45 38° W 22:56:32 40° WSW 23:01:56 10° S
USA 215 3.6 23:02:11 58° W 23:02:11 58° W 23:07:46 10° SW
Cosmos 2263 Rocket 4.0 23:01:38 10° SW 23:05:40 24° W 23:05:40 24° W
Cosmos 2278 Rocket 4.1 23:25:24 10° S 23:27:59 25° S 23:27:59 25° S
Cosmos 2219 Rocket 4.3 23:50:32 22° S 23:50:32 22° S 23:52:28 10° SSE
